POLAR SCOUT KODIAK (43764 NORAD) Tracking and Keplerian Element Data

This shows tracking and keplerian element data for the satellite.

Feedback or suggestion? Click here.




ElementValue
Catalog43764
NamePOLAR SCOUT KODIAK
Epoch Orbit429
Epoch Day1.51070511
Epoch Year2019
RAAN75.4234
Inclination97.7647
Eccentricity0.0016353
Argument of Perigee169.3102
Mean Anonmoly190.847
Mean Motion14.96115159
Decay Rate-1.93E-06
L11 43764U 18099G 19001.51070511 -.00000193 00000-0 -11893-4 0 9993
L22 43764 97.7647 75.4234 0016353 169.3102 190.8470 14.96115159 4297

Live tracking and technical data element details for POLAR SCOUT KODIAK (NORAD 43764). POLAR SCOUT KODIAK can be tracked NOW for your location showing map with azimuth and elevation plus other details from your city location.

Track the satellite on the map from your city or location and see movement details for azimuth, elevation, latitude, longitude, range, height, and movement on the map or in text.







IsCatalogInMostPopularTable: catalog: 43764, numindb: 79
Update: records affected: 1



GetName: 43764 POLAR SCOUT KODIAK

Hit Count: updated at: Wed, 17 Jul 2019 08:29:33 GMT